[[{"header":{"parameterUnit":"m.s-1","parameterCategory":1,"la1":30.2991,"la2":30.254,"lo1":-89.0895,"lo2":-89.0444,"dy":0.0017,"dx":0.0017,"nx":28,"ny":28,"refTime":"2025-08-06T03:00:00:Z","depth":0,"parameterNumber":2,"parameterNumberName":"U-component_of_WINDS"},"data":[0,0,0,0,0,0,0,0,0,0,0,0,0,0,0,0,0,0,0,0,0,0,0,0,0,0,0,0,0,0,0,0,0,0,0,0,0,0,0,0,0,0,0,0,0,0,0,0,0,0,0,0,0,0,0,0,0,0,0.1907,0.1908,0,0.1988,0.1989,0.199,0.2037,0.2037,0.2037,0.2037,0.2122,0.2124,0.2126,0,0,0,0,0,0,0,0,0,0,0,0,0,0.1794,0.1795,0.1907,0.1908,0.1909,0.1988,0.1989,0.199,0.2037,0.2037,0.2037,0.2037,0.2122,0.2124,0.2127,0,0,0,0,0,0,0,0,0,0,0,0,0,0.1856,0.1796,0.1907,0.1942,0.1946,0.1988,0.1989,0.1991,0.2037,0.2037,0.2037,0.2037,0.2121,0.2124,0.2127,0.2141,0,0,0.2137,0.2138,0,0,0,0,0,0,0,0,0.1852,0.186,0.1936,0.1939,0.1944,0.2003,0.198,0.2041,0.2037,0.2002,0.2037,0.2038,0.2082,0.2089,0.2103,0.2145,0.2149,0.2137,0.2139,0.214,0.2141,0,0,0,0,0,0,0,0.1848,0.1857,0.1939,0.1937,0.1942,0.1954,0.1963,0.1992,0.204,0.2005,0.2009,0.2018,0.2085,0.21,0.2106,0.215,0.2137,0.214,0.2142,0.2143,0.2207,0.2207,0,0,0,0,0,0,0.1838,0.1853,0.1937,0.1942,0.1898,0.1956,0.1966,0.1984,0.204,0.2049,0.2017,0.202,0.2095,0.2102,0.2109,0.2129,0.214,0.2143,0.2145,0.2207,0.2207,0.2206,0,0,0,0,0,0,0.1835,0.1845,0.1933,0.1898,0.191,0.1957,0.1977,0.1985,0.2001,0.2049,0.2058,0.2024,0.2095,0.2105,0.2133,0.2132,0.2145,0.2147,0.2207,0.2207,0.2207,0.2168,0,0,0,0,0,0,0.1831,0.1843,0.1849,0.1898,0.1912,0.1955,0.1977,0.1986,0.2006,0.2009,0.2058,0.2066,0.2096,0.2128,0.2136,0.2137,0.215,0.2207,0.2207,0.2207,0.217,0.2167,0.2164,0,0,0,0,0,0.1827,0.1836,0.1849,0.1859,0.192,0.1955,0.1963,0.1997,0.2005,0.2012,0.2042,0.2065,0.2131,0.213,0.214,0.2142,0.2208,0.2207,0.2207,0.2171,0.2167,0.2164,0,0,0,0,0,0,0.1787,0.1843,0.1858,0.1883,0.1914,0.1963,0.1972,0.1992,0.2022,0.2024,0.2065,0.2076,0.21,0.2124,0.2122,0.2158,0.2172,0.2173,0.2141,0.2138,0.2135,0.2129,0.2153,0,0,0,0,0,0.1781,0.1804,0.1852,0.1869,0.1883,0.1925,0.1941,0.1964,0.1998,0.2012,0.2045,0.2077,0.2106,0.2123,0.2152,0.2173,0.2184,0.218,0.2177,0.2174,0.2175,0.2187,0.2185,0.2205,0.2205,0.2205,0,0,0.1769,0.1802,0.1814,0.1862,0.1888,0.1911,0.1936,0.1959,0.1977,0.2016,0.2044,0.2069,0.2108,0.2132,0.2145,0.2153,0.2171,0.2173,0.2171,0.2173,0.2186,0.2184,0.2182,0.2205,0.2205,0.2205,0,0,0.1758,0.1786,0.1802,0.1828,0.1868,0.1895,0.1899,0.1945,0.1962,0.1991,0.202,0.2042,0.209,0.2116,0.2135,0.2133,0.2154,0.2141,0.2126,0.2138,0.2136,0.2135,0.2133,0.2132,0.2142,0.2142,0.2142,0,0.1738,0.1773,0.1808,0.183,0.185,0.1885,0.1902,0.1926,0.1973,0.1985,0.1994,0.2053,0.2082,0.2113,0.2112,0.2127,0.2132,0.2136,0.2133,0.2132,0.2132,0.2131,0.213,0.214,0.214,0.214,0.2141,0,0.1746,0.1771,0.1779,0.1822,0.1843,0.1863,0.1901,0.1917,0.1938,0.1965,0.1993,0.2028,0.2064,0.2073,0.2095,0.2107,0.211,0.2125,0.214,0.2127,0.2127,0.2127,0.2137,0.2138,0.2138,0.2139,0,0,0.1713,0.1774,0.1777,0.1797,0.1842,0.1862,0.1882,0.1916,0.193,0.1961,0.1979,0.2018,0.2032,0.2054,0.2078,0.2088,0.2083,0.2102,0.2104,0.2097,0.2097,0.2084,0.2083,0.2097,0.2097,0.2097,0.2093,0,0.1709,0.1747,0.1778,0.1804,0.1827,0.186,0.1878,0.1908,0.1932,0.1955,0.1983,0.2009,0.2026,0.204,0.2051,0.2081,0.2083,0.2082,0.2114,0.2115,0.2102,0.2083,0.2071,0.2065,0.2093,0.2093,0.2093,0,0.1709,0.1737,0.1765,0.1807,0.1818,0.1833,0.1866,0.1888,0.1922,0.1939,0.1963,0.1988,0.2011,0.2024,0.2056,0.2054,0.2069,0.2086,0.2086,0.209,0.2103,0.2086,0.2065,0.2063,0.2094,0.2093,0.2093,0,0.168,0.1726,0.1748,0.1764,0.1814,0.1824,0.1845,0.188,0.1898,0.1927,0.1939,0.1971,0.1988,0.2012,0.2045,0.2051,0.2073,0.2088,0.2088,0.2087,0.2091,0.209,0.207,0.2101,0.2101,0.2101,0.2101,0,0.1672,0.1687,0.1736,0.175,0.1768,0.1804,0.1821,0.1846,0.1876,0.1895,0.1926,0.1943,0.1986,0.2008,0.2034,0.2056,0.2064,0.2079,0.2085,0.2075,0.2073,0.2086,0.2087,0.2101,0.2101,0.2101,0.2101,0,0.1643,0.1676,0.1703,0.1747,0.1759,0.177,0.1809,0.1823,0.1849,0.1873,0.188,0.1921,0.1949,0.1984,0.2024,0.2041,0.206,0.2071,0.2048,0.2052,0.2049,0.2048,0.2036,0.2036,0.2067,0.2067,0.2066,0,0.1635,0.1648,0.1693,0.1708,0.1728,0.1751,0.1769,0.1805,0.1822,0.1862,0.1871,0.1901,0.1927,0.1969,0.2003,0.2033,0.2044,0.2038,0.2049,0.2038,0.2043,0.2041,0.2042,0.2035,0.2034,0.2034,0.2033,0,0.1617,0.1632,0.1657,0.1687,0.1707,0.1733,0.176,0.177,0.1812,0.183,0.1858,0.1878,0.1917,0.1946,0.198,0.2002,0.2024,0.203,0.2031,0.2021,0.2007,0.2013,0.2039,0.203,0.203,0.203,0.2031,0.2031,0.1598,0.161,0.1644,0.167,0.1693,0.1718,0.1733,0.176,0.1784,0.1818,0.1838,0.1865,0.1898,0.1946,0.1967,0.1989,0.1998,0.2,0.2,0.2,0.1996,0.2003,0.1996,0.1996,0.1996,0.1996,0.1996,0,0.1581,0.1604,0.1627,0.1663,0.1683,0.1702,0.1732,0.1748,0.1771,0.18,0.1824,0.1856,0.1884,0.1919,0.1949,0.196,0.197,0.1966,0.1966,0.197,0.1988,0.1983,0.1957,0.1957,0.1957,0.1957,0.1957,0.1957,0.1574,0.1595,0.1615,0.1648,0.1671,0.1697,0.1712,0.1734,0.1757,0.1791,0.1814,0.1836,0.1867,0.19,0.1926,0.1936,0.1945,0.1938,0.195,0.1966,0.1969,0.1972,0.1968,0.194,0.194,0.1931,0.1931,0.1931]},{"header":{"parameterUnit":"m.s-1","parameterCategory":1,"la1":30.2991,"la2":30.254,"lo1":-89.0895,"lo2":-89.0444,"dy":0.0017,"dx":0.0017,"nx":28,"ny":28,"refTime":"2025-08-06T03:00:00:Z","depth":0,"parameterNumber":3,"parameterNumberName":"V-component_of_WINDS"},"data":[0,0,0,0,0,0,0,0,0,0,0,0,0,0,0,0,0,0,0,0,0,0,0,0,0,0,0,0,0,0,0,0,0,0,0,0,0,0,0,0,0,0,0,0,0,0,0,0,0,0,0,0,0,0,0,0,0,0,1.7576,1.7575,0,1.7519,1.7518,1.7517,1.7502,1.7502,1.7502,1.7503,1.7441,1.7439,1.7437,0,0,0,0,0,0,0,0,0,0,0,0,0,1.7667,1.7666,1.7576,1.7575,1.7574,1.7519,1.7518,1.7517,1.7502,1.7502,1.7503,1.7503,1.7442,1.7439,1.7437,0,0,0,0,0,0,0,0,0,0,0,0,0,1.7621,1.7665,1.7576,1.756,1.7558,1.7519,1.7518,1.7517,1.7502,1.7502,1.7503,1.7503,1.7442,1.7439,1.7437,1.7408,0,0,1.7428,1.7426,0,0,0,0,0,0,0,0,1.7623,1.7617,1.7563,1.7561,1.7559,1.7518,1.7528,1.748,1.7501,1.7523,1.7503,1.7503,1.7466,1.7461,1.7449,1.7405,1.7403,1.7427,1.7425,1.7424,1.7423,0,0,0,0,0,0,0,1.7627,1.762,1.7553,1.7562,1.756,1.7554,1.7548,1.7519,1.7492,1.7521,1.752,1.7513,1.7465,1.7452,1.7448,1.7402,1.7427,1.7425,1.7423,1.7422,1.733,1.733,0,0,0,0,0,0,1.7633,1.7622,1.7555,1.7551,1.7593,1.7552,1.7546,1.753,1.7492,1.7487,1.7513,1.7513,1.7457,1.7451,1.7445,1.7409,1.7424,1.7421,1.742,1.7331,1.733,1.733,0,0,0,0,0,0,1.7635,1.7627,1.7557,1.7587,1.7577,1.755,1.7533,1.7529,1.7516,1.7486,1.7481,1.7505,1.7457,1.7449,1.7417,1.7406,1.742,1.7417,1.7332,1.7331,1.733,1.7336,0,0,0,0,0,0,1.7638,1.7628,1.7618,1.7586,1.7576,1.7531,1.7533,1.7528,1.7512,1.7511,1.7478,1.7472,1.7457,1.7422,1.7415,1.7402,1.7415,1.7333,1.7331,1.733,1.7336,1.7335,1.7334,0,0,0,0,0,1.7641,1.7621,1.7617,1.7609,1.7563,1.7531,1.7525,1.7508,1.7511,1.75,1.748,1.7474,1.7409,1.7419,1.741,1.7397,1.7333,1.7332,1.733,1.7337,1.7335,1.7334,0,0,0,0,0,0,1.7651,1.7617,1.7612,1.7582,1.7559,1.7528,1.7514,1.7507,1.7482,1.7482,1.7462,1.7454,1.7423,1.7407,1.7419,1.7367,1.7371,1.7368,1.7379,1.7377,1.7376,1.738,1.7413,0,0,0,0,0,1.765,1.7628,1.7599,1.7575,1.7564,1.7541,1.7526,1.7516,1.7491,1.7481,1.7459,1.7435,1.7409,1.7392,1.7367,1.7334,1.7326,1.7321,1.732,1.7319,1.7316,1.7296,1.7293,1.7325,1.7325,1.7325,0,0,1.7646,1.7625,1.7613,1.7576,1.7558,1.7534,1.7533,1.7508,1.749,1.7477,1.7445,1.7429,1.74,1.7367,1.7352,1.7353,1.7306,1.7317,1.7317,1.7314,1.7294,1.7291,1.7289,1.7324,1.7324,1.7324,0,0,1.7629,1.7611,1.7589,1.757,1.7542,1.7527,1.7522,1.7492,1.748,1.7449,1.7438,1.7416,1.7372,1.7351,1.7335,1.731,1.7302,1.7302,1.7295,1.7276,1.7273,1.7271,1.7261,1.7257,1.7299,1.7299,1.7299,0,1.7628,1.7593,1.7578,1.7553,1.7537,1.7525,1.7501,1.7484,1.7449,1.7437,1.7439,1.7384,1.7363,1.7325,1.7319,1.7307,1.7299,1.7305,1.7275,1.7273,1.727,1.726,1.7256,1.7299,1.7299,1.7299,1.7299,0,1.7593,1.7569,1.7554,1.7521,1.7503,1.748,1.7459,1.7443,1.7433,1.7418,1.7385,1.736,1.7329,1.732,1.731,1.728,1.7281,1.728,1.7283,1.7268,1.7258,1.7254,1.7299,1.7299,1.7299,1.7299,0,0,1.7579,1.7538,1.7533,1.7517,1.7486,1.7466,1.7442,1.7412,1.7398,1.7374,1.7352,1.7315,1.7313,1.7295,1.7283,1.7266,1.7246,1.7266,1.7265,1.7262,1.721,1.721,1.7206,1.7241,1.7241,1.724,1.7212,0,1.7556,1.7512,1.7497,1.746,1.7437,1.7426,1.7404,1.7381,1.7366,1.7343,1.7326,1.73,1.73,1.7289,1.7272,1.7252,1.7235,1.7254,1.7219,1.7218,1.7225,1.7201,1.7201,1.7176,1.7208,1.7207,1.7207,0,1.7523,1.75,1.7461,1.7432,1.7422,1.7402,1.7374,1.7353,1.7327,1.7316,1.7296,1.7285,1.7258,1.7263,1.7224,1.7237,1.7222,1.721,1.7209,1.7203,1.721,1.7194,1.7168,1.7163,1.72,1.7201,1.7201,0,1.7515,1.7474,1.7445,1.7433,1.7398,1.7385,1.737,1.7344,1.7327,1.7302,1.7291,1.7262,1.7246,1.7224,1.7205,1.7212,1.7167,1.7172,1.7156,1.7157,1.7146,1.7147,1.7116,1.7139,1.7139,1.7139,1.7139,0,1.7491,1.7467,1.7441,1.7423,1.7396,1.7379,1.7352,1.7336,1.7313,1.7291,1.7279,1.7258,1.7236,1.7211,1.7197,1.7165,1.7159,1.7148,1.7144,1.7149,1.715,1.7137,1.7138,1.7138,1.7138,1.7139,1.7139,0,1.7477,1.7459,1.7426,1.7397,1.7388,1.737,1.7343,1.7325,1.7309,1.7281,1.7274,1.7248,1.7219,1.7199,1.7161,1.7151,1.7117,1.7114,1.7126,1.7124,1.7109,1.711,1.7068,1.7061,1.709,1.709,1.709,0,1.7462,1.7443,1.7412,1.7396,1.7381,1.7357,1.734,1.7322,1.7304,1.7273,1.7258,1.7228,1.7204,1.7157,1.7135,1.7106,1.7101,1.7088,1.7096,1.7101,1.7099,1.71,1.7097,1.7086,1.7086,1.7086,1.7086,0,1.7436,1.7428,1.7404,1.7377,1.7357,1.7335,1.7312,1.73,1.7278,1.7259,1.723,1.721,1.7172,1.7142,1.7111,1.7094,1.7085,1.7084,1.7078,1.7082,1.7089,1.7083,1.7121,1.7084,1.7084,1.7085,1.7085,1.7085,1.742,1.7402,1.7377,1.7351,1.7333,1.7312,1.7293,1.7275,1.725,1.7219,1.7209,1.7178,1.7152,1.7109,1.7092,1.7066,1.7067,1.706,1.7057,1.7056,1.7055,1.7094,1.7061,1.7061,1.7061,1.7061,1.7061,0,1.7392,1.7376,1.7352,1.7321,1.73,1.7296,1.727,1.7253,1.7226,1.7203,1.7179,1.7144,1.7115,1.7091,1.706,1.7045,1.704,1.7037,1.7037,1.7033,1.7057,1.7064,1.7041,1.7041,1.7041,1.7041,1.7041,1.7041,1.7375,1.7346,1.7335,1.7295,1.7278,1.7249,1.7234,1.7214,1.7196,1.7158,1.7134,1.7119,1.7095,1.7062,1.7035,1.7029,1.7017,1.7015,1.7007,1.703,1.7032,1.7034,1.704,1.7013,1.7013,1.6986,1.6985,1.6985]}]]